Meteo pe oră la Dabrowica

Astăzi, 10 Aprilie, Sâmbătă

Timp Temperatura Precipitaţii Vânt Presiune Umiditate
00:00 +3°C° 0 mm 4 m/s 749 mmHg 64%
01:00 +4°C° 0 mm 4 m/s 748 mmHg 64%
02:00 +3°C° 0 mm 4 m/s 748 mmHg 66%
03:00 +3°C° 0 mm 4 m/s 748 mmHg 67%
04:00 +3°C° 0 mm 4 m/s 748 mmHg 69%
05:00 +4°C° 0 mm 4 m/s 748 mmHg 68%
06:00 +4°C° 0 mm 4 m/s 748 mmHg 67%
07:00 +5°C° 0 mm 5 m/s 748 mmHg 67%
08:00 +7°C° 0 mm 5 m/s 748 mmHg 61%
09:00 +10°C° 0 mm 5 m/s 748 mmHg 56%
10:00 +13°C° 0 mm 5 m/s 748 mmHg 50%
11:00 +14°C° 0 mm 5 m/s 748 mmHg 47%
12:00 +15°C° 0 mm 5 m/s 747 mmHg 43%
13:00 +17°C° 0 mm 5 m/s 747 mmHg 39%
14:00 +16°C° 0 mm 5 m/s 747 mmHg 42%
15:00 +17°C° 0 mm 4 m/s 747 mmHg 44%
16:00 +17°C° 0 mm 4 m/s 747 mmHg 46%
17:00 +15°C° 0 mm 4 m/s 748 mmHg 51%
18:00 +13°C° 0 mm 3 m/s 748 mmHg 57%
19:00 +11°C° 0 mm 3 m/s 748 mmHg 62%
20:00 +10°C° 0 mm 3 m/s 748 mmHg 64%
21:00 +9°C° 0 mm 3 m/s 749 mmHg 67%
22:00 +9°C° 0 mm 2 m/s 749 mmHg 69%
23:00 +8°C° 0 mm 2 m/s 749 mmHg 70%

Mâine, 11 Aprilie, Duminică

Timp Temperatura Precipitaţii Vânt Presiune Umiditate
00:00 +8°C° 0 mm 2 m/s 749 mmHg 71%
01:00 +8°C° 0 mm 2 m/s 749 mmHg 73%
02:00 +7°C° 0 mm 2 m/s 749 mmHg 74%
03:00 +7°C° 0 mm 3 m/s 749 mmHg 76%
04:00 +7°C° 0 mm 3 m/s 749 mmHg 78%
05:00 +6°C° 0 mm 4 m/s 749 mmHg 75%
06:00 +7°C° 0 mm 4 m/s 749 mmHg 73%
07:00 +8°C° 0 mm 5 m/s 749 mmHg 70%
08:00 +10°C° 0 mm 6 m/s 749 mmHg 63%
09:00 +13°C° 0 mm 6 m/s 749 mmHg 55%
10:00 +15°C° 0 mm 7 m/s 749 mmHg 48%
11:00 +16°C° 0 mm 7 m/s 749 mmHg 46%
12:00 +16°C° 0 mm 7 m/s 749 mmHg 43%
13:00 +17°C° 0 mm 7 m/s 749 mmHg 41%
14:00 +17°C° 0 mm 7 m/s 748 mmHg 44%
15:00 +16°C° 0 mm 7 m/s 748 mmHg 47%
16:00 +16°C° 0 mm 7 m/s 748 mmHg 51%
17:00 +14°C° 0.1 mm 6 m/s 748 mmHg 55%
18:00 +13°C° 0.1 mm 5 m/s 749 mmHg 60%
19:00 +12°C° 0.1 mm 4 m/s 749 mmHg 65%
20:00 +10°C° 0.6 mm 5 m/s 749 mmHg 69%
21:00 +10°C° 0.6 mm 5 m/s 749 mmHg 73%
22:00 +10°C° 0.6 mm 5 m/s 749 mmHg 78%
23:00 +9°C° 0 mm 5 m/s 748 mmHg 76%

Poimâine, 12 Aprilie, Luni

Timp Temperatura Precipitaţii Vânt Presiune Umiditate
00:00 +9°C° 0 mm 5 m/s 748 mmHg 75%
01:00 +9°C° 0 mm 5 m/s 748 mmHg 74%
02:00 +9°C° 0 mm 5 m/s 748 mmHg 73%
03:00 +10°C° 0 mm 4 m/s 747 mmHg 73%
04:00 +10°C° 0 mm 4 m/s 747 mmHg 73%
05:00 +10°C° 0 mm 4 m/s 747 mmHg 72%
06:00 +11°C° 0 mm 4 m/s 747 mmHg 72%
07:00 +11°C° 0 mm 4 m/s 747 mmHg 72%
08:00 +12°C° 0 mm 4 m/s 747 mmHg 69%
09:00 +12°C° 0 mm 4 m/s 747 mmHg 66%
10:00 +13°C° 0 mm 4 m/s 747 mmHg 63%
11:00 +14°C° 0 mm 4 m/s 747 mmHg 62%
12:00 +14°C° 0 mm 3 m/s 747 mmHg 60%
13:00 +16°C° 0 mm 2 m/s 747 mmHg 58%
14:00 +16°C° 0 mm 2 m/s 746 mmHg 59%
15:00 +16°C° 0 mm 2 m/s 746 mmHg 59%
16:00 +16°C° 0 mm 1 m/s 746 mmHg 59%
17:00 +16°C° 0 mm 1 m/s 746 mmHg 62%
18:00 +15°C° 0 mm 1 m/s 747 mmHg 66%
19:00 +13°C° 0 mm 0 m/s 747 mmHg 69%
20:00 +13°C° 0 mm 1 m/s 747 mmHg 71%
21:00 +13°C° 0 mm 1 m/s 747 mmHg 73%
22:00 +12°C° 0 mm 1 m/s 746 mmHg 75%
23:00 +12°C° 0.2 mm 1 m/s 746 mmHg 79%

13 Aprilie, Marţi

Timp Temperatura Precipitaţii Vânt Presiune Umiditate
00:00 +12°C° 0.2 mm 1 m/s 746 mmHg 83%
01:00 +10°C° 0.2 mm 2 m/s 746 mmHg 88%
02:00 +10°C° 0.2 mm 2 m/s 746 mmHg 89%
03:00 +10°C° 0.2 mm 2 m/s 746 mmHg 91%
04:00 +9°C° 0.2 mm 2 m/s 746 mmHg 92%
05:00 +8°C° 0 mm 3 m/s 747 mmHg 91%
06:00 +6°C° 0 mm 5 m/s 747 mmHg 90%
07:00 +4°C° 0 mm 6 m/s 748 mmHg 90%
08:00 +3°C° 0.1 mm 6 m/s 749 mmHg 90%
09:00 +2°C° 0.1 mm 6 m/s 749 mmHg 90%
10:00 +1°C° 0.1 mm 6 m/s 750 mmHg 90%
11:00 +1°C° 0.5 mm 6 m/s 750 mmHg 91%
12:00 +1°C° 0.5 mm 5 m/s 750 mmHg 93%
13:00 +1°C° 0.5 mm 5 m/s 750 mmHg 94%
14:00 +1°C° 0.6 mm 5 m/s 750 mmHg 95%
15:00 0°C° 0.6 mm 4 m/s 750 mmHg 95%
16:00 0°C° 0.6 mm 4 m/s 750 mmHg 96%
17:00 0°C° 0.5 mm 4 m/s 750 mmHg 97%
18:00 0°C° 0.5 mm 4 m/s 750 mmHg 98%
19:00 +1°C° 0.5 mm 3 m/s 750 mmHg 98%
20:00 0°C° 1 mm 4 m/s 750 mmHg 98%
21:00 0°C° 1 mm 4 m/s 750 mmHg 99%
22:00 -1°C° 1 mm 4 m/s 749 mmHg 99%
23:00 -1°C° 1.5 mm 4 m/s 749 mmHg 99%

14 Aprilie, Miercuri

Timp Temperatura Precipitaţii Vânt Presiune Umiditate
00:00 -1°C° 1.5 mm 5 m/s 749 mmHg 98%
01:00 -1°C° 1.5 mm 5 m/s 749 mmHg 98%
02:00 -1°C° 0.6 mm 5 m/s 749 mmHg 98%
03:00 -1°C° 0.6 mm 5 m/s 749 mmHg 98%
04:00 -1°C° 0.6 mm 5 m/s 749 mmHg 98%
05:00 -1°C° 0.3 mm 5 m/s 749 mmHg 97%
06:00 -2°C° 0.3 mm 6 m/s 749 mmHg 96%
07:00 -2°C° 0.3 mm 6 m/s 749 mmHg 95%
08:00 -1°C° 0.2 mm 6 m/s 749 mmHg 93%
09:00 -1°C° 0.2 mm 7 m/s 748 mmHg 92%
10:00 0°C° 0.2 mm 7 m/s 748 mmHg 91%
11:00 0°C° 0.4 mm 7 m/s 748 mmHg 92%
12:00 0°C° 0.4 mm 7 m/s 748 mmHg 94%
13:00 +1°C° 0.4 mm 6 m/s 748 mmHg 95%
14:00 +1°C° 1.2 mm 6 m/s 748 mmHg 95%
15:00 -1°C° 1.2 mm 6 m/s 747 mmHg 96%
16:00 -1°C° 1.2 mm 6 m/s 747 mmHg 97%
17:00 -1°C° 1.3 mm 6 m/s 747 mmHg 97%
18:00 -1°C° 1.3 mm 6 m/s 747 mmHg 98%
19:00 -2°C° 1.3 mm 7 m/s 747 mmHg 98%
20:00 -2°C° 1.2 mm 7 m/s 747 mmHg 98%
21:00 -2°C° 1.2 mm 7 m/s 747 mmHg 98%
22:00 -2°C° 1.2 mm 7 m/s 746 mmHg 98%
23:00 -2°C° 1.3 mm 7 m/s 746 mmHg 98%

15 Aprilie, Joi

Timp Temperatura Precipitaţii Vânt Presiune Umiditate
00:00 -2°C° 1.3 mm 7 m/s 746 mmHg 98%
01:00 -3°C° 1.3 mm 7 m/s 746 mmHg 98%
02:00 -3°C° 1.4 mm 7 m/s 746 mmHg 98%
03:00 -3°C° 1.4 mm 7 m/s 746 mmHg 98%
04:00 -3°C° 1.4 mm 7 m/s 746 mmHg 98%
05:00 -3°C° 1.1 mm 7 m/s 746 mmHg 98%
06:00 -3°C° 1.1 mm 7 m/s 746 mmHg 99%
07:00 -3°C° 1.1 mm 7 m/s 746 mmHg 99%
08:00 -3°C° 0.7 mm 6 m/s 746 mmHg 99%
09:00 -2°C° 0.7 mm 6 m/s 746 mmHg 99%
10:00 -2°C° 0.7 mm 6 m/s 747 mmHg 99%
11:00 -2°C° 0.4 mm 6 m/s 747 mmHg 99%
12:00 -2°C° 0.4 mm 6 m/s 747 mmHg 99%
13:00 -1°C° 0.4 mm 5 m/s 747 mmHg 99%
14:00 -1°C° 0.2 mm 5 m/s 747 mmHg 99%
15:00 -1°C° 0.2 mm 5 m/s 747 mmHg 99%
16:00 -1°C° 0.2 mm 5 m/s 747 mmHg 99%
17:00 -1°C° 0.5 mm 5 m/s 747 mmHg 99%
18:00 -1°C° 0.5 mm 5 m/s 747 mmHg 99%
19:00 -1°C° 0.5 mm 5 m/s 748 mmHg 99%
20:00 -1°C° 0.7 mm 5 m/s 748 mmHg 99%
21:00 -1°C° 0.7 mm 5 m/s 748 mmHg 99%
22:00 -1°C° 0.7 mm 5 m/s 748 mmHg 99%
23:00 -1°C° 0.5 mm 5 m/s 748 mmHg 99%
Arată mai mult

Formular de consimțământ

Meteoprog și furnizorii noștri de servicii pot stoca și accesa date personale, precum cookies, identificatori de dispozitiv sau alte tehnologii similare pe dispozitivul dumneavoastră și procesa astfel de date pentru a personaliza conținutul și reclamele, dar și pentru a oferi caracteristici de social media și pentru a analiza traficul.

  • Stocarea și/sau accesarea informațiilor pe dispozitivul dumneavoastră

    Cookies, identificatori de dispozitiv sau alte informații pot fi stocate sau accesate pe dispozitiv în scopurile indicate mai sus.

  • Reclame și conținut personalizat, evaluarea reclamelor și a conținutului, informații despre audiențe și dezvoltarea produselor

    Reclamele și conținutul pot fi personalizate pe baza unui profil. Pot fi adăugate date suplimentare pentru a personaliza mai bine reclamele și conținutul. Performanța reclamelor și conținutului poate fi măsurată. Pot fi obținute informații despre utilizatorii care au văzut reclamele și conținutul. Aceste date pot fi utilizate pentru a dezvolta sau îmbunătăți experiența utilizatorilor, sistemele și software-ul.

Dând clic pe ‘Sunt de acord’, permiteți utilizarea cookie-urilor menționate, a identificatorilor de dispozitiv, balizelor web sau altor tehnologii similare. Setările pot fi modificate din browser-ul dispozitivului dumneavoastră.

În anumite scopuri, interesele legitime pot prima asupra consimțământului. Puteți citi mai multe informații în acest sens în Politica privind Confidențialitatea Datelor și Cookie.